Weather History for Inverness, United Kingdom

Change the Weather History Date:

Wednesday, May 8, 2013

  Actual Average Record
Temperature  
Mean Temperature 52 °F -  
Max Temperature 62 °F 56 °F 71 °F (2006)
Min Temperature 42 °F 43 °F 33 °F (1997)
Degree Days  
Heating Degree Days 13    
Growing Degree Days 2 (Base 50)    
Moisture  
Dew Point 45 °F    
Average Humidity 75    
Maximum Humidity 100    
Minimum Humidity 55    
Precipitation  
Precipitation 0.00 in - - ()
Sea Level Pressure  
Sea Level Pressure 29.64 in    
Wind  
Wind Speed 7 mph ()    
Max Wind Speed 20 mph    
Max Gust Speed 32 mph    
Visibility 6.2 miles    
Events      
Averages and records for this station are not official NWS values.
T = Trace of Precipitation, MM = Missing Value Source: Averaged Metar Reports

Daily Weather History Graph

Daily Weather History Graph

Search for Another Location

Airport:

Trip Planner

Search our weather history database for the weather conditions in past years. The results will help you decide how hot, cold, wet, or windy it might be!

Date:

Astronomy

May. 08, 2013 Rise Set
Actual Time 5:09 AM BST 9:17 PM BST
Civil Twilight 4:18 AM BST 10:08 PM BST
Nautical Twilight 3:01 AM BST 11:27 PM BST
Astronomical Twilight 1:45 AM BST 12:40 AM BST
Moon 4:30 AM BST (5/8) 7:48 PM BST (5/8)
Length of Visible Light 17h 49m
Length of Day
16h 08m
Waning Crescent, 2% of the Moon is Illuminated
May 8
Waning Crescent
May 10
New
May 18
First Quarter
May 25
Full
May 31
Last Quarter

Hourly Weather History & Observations

Time (BST) Temp. Windchill Dew Point Humidity Pressure Visibility Wind Dir Wind Speed Gust Speed Precip Events Conditions
12:20 AM 42.8 °F 41.1 °F 42.8 °F 100% 29.89 in 6.2 mi Variable 3.5 mph - N/A   Unknown
12:50 AM 46.4 °F - 41.0 °F 81% 29.89 in 6.2 mi Variable 2.3 mph - N/A   Unknown
1:20 AM 46.4 °F - 41.0 °F 81% 29.86 in 6.2 mi Calm Calm - N/A   Unknown
1:50 AM 50.0 °F - 42.8 °F 76% 29.86 in 6.2 mi Variable 3.5 mph - N/A   Unknown
2:20 AM 48.2 °F - 42.8 °F 82% 29.86 in 6.2 mi Calm Calm - N/A   Unknown
2:50 AM 46.4 °F - 42.8 °F 87% 29.83 in - Variable 2.3 mph - N/A   Clear
3:20 AM 42.8 °F - 39.2 °F 87% 29.83 in - Calm Calm - N/A   Clear
3:50 AM 44.6 °F 42.2 °F 41.0 °F 87% 29.80 in - East 4.6 mph - N/A   Clear
4:20 AM 48.2 °F - 39.2 °F 71% 29.80 in - East 6.9 mph - N/A   Clear
4:50 AM 44.6 °F 40.7 °F 41.0 °F 87% 29.80 in - ENE 6.9 mph - N/A   Clear
5:20 AM 50.0 °F - 41.0 °F 71% 29.77 in - ESE 8.1 mph - N/A   Clear
5:50 AM 50.0 °F - 41.0 °F 71% 29.77 in - East 6.9 mph - N/A   Clear
6:20 AM 48.2 °F - 42.8 °F 82% 29.77 in - North 8.1 mph - N/A   Clear
6:50 AM 48.2 °F - 42.8 °F 82% 29.77 in - North 4.6 mph - N/A   Clear
7:20 AM 50.0 °F - 42.8 °F 76% 29.74 in - Variable 3.5 mph - N/A   Clear
7:50 AM 50.0 °F - 44.6 °F 82% 29.74 in - NNE 5.8 mph - N/A   Clear
8:20 AM 51.8 °F - 46.4 °F 82% 29.71 in - NE 5.8 mph - N/A   Clear
8:50 AM 53.6 °F - 48.2 °F 82% 29.71 in - NNE 9.2 mph - N/A   Clear
9:20 AM 55.4 °F - 50.0 °F 82% 29.68 in - NNE 10.4 mph - N/A   Clear
9:50 AM 53.6 °F - 48.2 °F 82% 29.68 in 6.2 mi NNE 13.8 mph - N/A   Partly Cloudy
10:20 AM 51.8 °F - 48.2 °F 88% 29.65 in 6.2 mi NNE 15.0 mph - N/A   Partly Cloudy
10:50 AM 57.2 °F - 50.0 °F 77% 29.65 in 6.2 mi NNE 8.1 mph - N/A   Partly Cloudy
11:20 AM 62.6 °F - 46.4 °F 55% 29.62 in 6.2 mi ESE 11.5 mph - N/A   Partly Cloudy
11:50 AM 60.8 °F - 46.4 °F 59% 29.62 in 6.2 mi ESE 15.0 mph - N/A   Partly Cloudy
12:20 PM 60.8 °F - 48.2 °F 63% 29.62 in 6.2 mi ESE 17.3 mph - N/A   Partly Cloudy
12:50 PM 60.8 °F - 48.2 °F 63% 29.62 in 6.2 mi ESE 15.0 mph - N/A   Partly Cloudy
1:20 PM 60.8 °F - 48.2 °F 63% 29.59 in 6.2 mi SE 18.4 mph - N/A   Partly Cloudy
1:50 PM 60.8 °F - 48.2 °F 63% 29.59 in 6.2 mi SE 19.6 mph 31.1 mph N/A   Partly Cloudy
2:20 PM 59.0 °F - 46.4 °F 63% 29.59 in 6.2 mi SE 19.6 mph 32.2 mph N/A   Partly Cloudy
2:50 PM 59.0 °F - 46.4 °F 63% 29.56 in 6.2 mi ESE 19.6 mph - N/A   Partly Cloudy
3:20 PM 59.0 °F - 46.4 °F 63% 29.56 in 6.2 mi ESE 19.6 mph 32.2 mph N/A   Partly Cloudy
3:50 PM 59.0 °F - 46.4 °F 63% 29.56 in 6.2 mi SE 18.4 mph - N/A   Scattered Clouds
4:20 PM 59.0 °F - 46.4 °F 63% 29.56 in 6.2 mi SE 12.7 mph - N/A   Scattered Clouds
4:50 PM 59.0 °F - 46.4 °F 63% 29.53 in 6.2 mi ESE 13.8 mph - N/A   Partly Cloudy
5:20 PM 57.2 °F - 46.4 °F 67% 29.50 in 6.2 mi ESE 18.4 mph - N/A   Partly Cloudy
5:50 PM 57.2 °F - 46.4 °F 67% 29.50 in 6.2 mi ESE 17.3 mph - N/A   Partly Cloudy
6:20 PM 57.2 °F - 48.2 °F 72% 29.50 in 6.2 mi East 10.4 mph - N/A   Scattered Clouds
6:50 PM 55.4 °F - 48.2 °F 77% 29.50 in 6.2 mi East 12.7 mph 26.5 mph N/A   Scattered Clouds
7:20 PM 55.4 °F - 48.2 °F 77% 29.47 in 6.2 mi ESE 15.0 mph - N/A   Scattered Clouds
7:50 PM 53.6 °F - 48.2 °F 82% 29.47 in 6.2 mi ESE 12.7 mph - N/A   Scattered Clouds
8:20 PM 53.6 °F - 48.2 °F 82% 29.47 in 6.2 mi East 11.5 mph - N/A   Scattered Clouds
8:50 PM 53.6 °F - 46.4 °F 77% 29.47 in 6.2 mi ESE 10.4 mph - N/A   Scattered Clouds
9:20 PM 53.6 °F - 46.4 °F 77% 29.47 in 6.2 mi East 10.4 mph - N/A   Mostly Cloudy
9:50 PM 53.6 °F - 46.4 °F 77% 29.47 in 6.2 mi East 8.1 mph - N/A   Mostly Cloudy
10:20 PM 51.8 °F - 46.4 °F 82% 29.47 in 6.2 mi East 6.9 mph - N/A   Scattered Clouds
10:50 PM 51.8 °F - 46.4 °F 82% 29.47 in 6.2 mi ENE 9.2 mph - N/A   Mostly Cloudy
11:20 PM 51.8 °F - 46.4 °F 82% 29.47 in 6.2 mi East 5.8 mph - N/A   Overcast
11:50 PM 51.8 °F - 46.4 °F 82% 29.47 in 6.2 mi ESE 5.8 mph - N/A   Mostly Cloudy